sat.trackr.live / text

‹ back to catalog

STARLINK-31058

NORAD 58677 · 2023-211L

PAYLOAD ACTIVE UNKNOWN

§ Identity

Operator
Country
US
Launch date
2023-12-29
Launch site
AFETR
Launch vehicle
Mass (kg)
RCS (m²)

Purposes: comms

External: N2YO · Heavens-Above · Gunter

§ Orbital elements

Epoch: 2026-05-25T00:55:03.223200Z

Period
94.27 min
Inclination
43.0040°
Eccentricity
0.0001455
Mean motion
15.27593750 rev/d
Perigee alt
482.0 km
Apogee alt
484.0 km
Semi-major
6,861.1 km
B*
1.0854e-5
RAAN
13.8875°
Arg perigee
261.0903°
Mean anomaly
98.9784°
Rev number
13,414

§ Raw data

STARLINK-310581 58677U 23211L   26145.03823175  .00000037  00000+0  10854-4 0  99902 58677  43.0040  13.8875 0001455 261.0903  98.9784 15.27593750134146

JSON: /api/v1/satellites/58677 · /tle

For live sub-satellite position, see the globe view (requires WebGL).

§ Visibility from observer

Set your observer location to see the next 7 days of passes ≥ 10°. The values pass through the URL so the page stays shareable.

No JS? Fill the form by hand. The geolocation button needs JavaScript.